This is the latest recevied weather packets stored in our database for station/object W3TMB. If no packets are shown the sender has not sent any weather packets the latest 10 day(s).
| Time | Temp. | Humidity | Pressure | Rain* | Wind** | Luminosity | Snow |
|---|---|---|---|---|---|---|---|
| 1777421469 | 11.67° C | 85% | 1014.4 hPa | 0 mm | - | 0 W/m² | - |
| 1777421165 | 11.67° C | 85% | 1014.6 hPa | 0 mm | - | 0 W/m² | - |
| 1777420861 | 11.67° C | 84% | 1014.7 hPa | 0 mm | - | 0 W/m² | - |
| 1777420557 | 11.67° C | 85% | 1014.5 hPa | 0 mm | - | 0 W/m² | - |
| 1777420253 | 11.67° C | 85% | 1014.7 hPa | 0 mm | - | 0 W/m² | - |
| 1777419949 | 11.67° C | 85% | 1014.9 hPa | 0 mm | - | 1 W/m² | - |
| 1777419646 | 11.67° C | 84% | 1014.7 hPa | 0 mm | - | 2 W/m² | - |
| 1777419345 | 11.67° C | 85% | 1014.9 hPa | 0 mm | - | 1 W/m² | - |
| 1777419044 | 11.67° C | 84% | 1014.8 hPa | 0 mm | - | 3 W/m² | - |
| 1777418743 | 11.67° C | 84% | 1014.7 hPa | 0 mm | - | 5 W/m² | - |
| 1777418440 | 11.67° C | 84% | 1014.6 hPa | 0 mm | - | 6 W/m² | - |
| 1777418136 | 11.67° C | 84% | 1014.7 hPa | 0 mm | - | 9 W/m² | - |
| 1777417833 | 11.67° C | 84% | 1014.6 hPa | 0 mm | - | 19 W/m² | - |
| 1777417533 | 11.67° C | 84% | 1014.7 hPa | 0 mm | - | 15 W/m² | - |
| 1777417230 | 11.67° C | 84% | 1014.5 hPa | 0 mm | - | 14 W/m² | - |
| 1777416926 | 11.67° C | 84% | 1014.7 hPa | 0 mm | - | 10 W/m² | - |
| 1777416621 | 11.67° C | 83% | 1014.6 hPa | 0 mm | - | 10 W/m² | - |
| 1777416317 | 12.22° C | 83% | 1014.8 hPa | 0 mm | - | 10 W/m² | - |
| 1777416016 | 12.22° C | 83% | 1015 hPa | 0 mm | - | 12 W/m² | - |
| 1777415712 | 12.22° C | 83% | 1014.9 hPa | 0 mm | - | 15 W/m² | - |
| 1777415408 | 12.22° C | 83% | 1015.1 hPa | 0 mm | - | 16 W/m² | - |
| 1777415108 | 12.22° C | 82% | 1014.9 hPa | 0 mm | - | 18 W/m² | - |
| 1777414803 | 12.22° C | 82% | 1015 hPa | 0 mm | - | 18 W/m² | - |
| 1777414499 | 12.22° C | 83% | 1015 hPa | 0 mm | - | 20 W/m² | - |
| 1777414197 | 12.22° C | 82% | 1014.8 hPa | 0 mm | - | 22 W/m² | - |
* Rain latest hour (hover to see other rain measurements)
** Current wind speed in m/s (hover to see current wind gust speed)